This is the latest recevied weather packets stored in our database for station/object KB1RMA-4. If no packets are shown the sender has not sent any weather packets the latest 10 day(s).
| Time | Temp. | Humidity | Pressure | Rain* | Wind** | Luminosity | Snow |
|---|---|---|---|---|---|---|---|
| 1788647030 | 17.78° C | 75% | 1012.3 hPa | 0 mm | - | 29 W/m² | - |
| 1788646727 | 17.78° C | 75% | 1012.3 hPa | 0 mm | - | 35 W/m² | - |
| 1788646423 | 17.78° C | 75% | 1012.2 hPa | 0 mm | - | 41 W/m² | - |
| 1788646119 | 18.33° C | 75% | 1012.1 hPa | 0 mm | - | 30 W/m² | - |
| 1788645815 | 18.33° C | 74% | 1012 hPa | 0 mm | - | 35 W/m² | - |
| 1788645514 | 18.33° C | 74% | 1011.9 hPa | 0 mm | - | 40 W/m² | - |
| 1788645210 | 18.33° C | 74% | 1011.9 hPa | 0 mm | - | 43 W/m² | - |
| 1788644906 | 18.33° C | 74% | 1011.8 hPa | 0 mm | - | 63 W/m² | - |
| 1788644601 | 18.33° C | 75% | 1011.6 hPa | 0 mm | - | 88 W/m² | - |
| 1788644296 | 18.33° C | 75% | 1011.7 hPa | 0 mm | - | 68 W/m² | - |
| 1788643993 | 18.33° C | 74% | 1011.9 hPa | 0 mm | - | 52 W/m² | - |
| 1788643693 | 18.33° C | 74% | 1011.7 hPa | 0 mm | - | 87 W/m² | - |
| 1788643393 | 18.33° C | 74% | 1011.6 hPa | 0 mm | - | 84 W/m² | - |
| 1788643093 | 18.89° C | 74% | 1011.7 hPa | 0 mm | - | 75 W/m² | - |
| 1788642788 | 18.89° C | 75% | 1011.9 hPa | 0 mm | - | 112 W/m² | - |
| 1788642484 | 18.33° C | 77% | 1012 hPa | 0 mm | - | 154 W/m² | - |
| 1788642184 | 18.33° C | 76% | 1012 hPa | 0 mm | - | 144 W/m² | - |
| 1788641882 | 18.33° C | 77% | 1011.7 hPa | 0 mm | - | 156 W/m² | - |
| 1788641578 | 18.33° C | 78% | 1011.7 hPa | 0 mm | - | 143 W/m² | - |
| 1788641276 | 18.33° C | 79% | 1011.7 hPa | 0 mm | - | 167 W/m² | - |
| 1788640973 | 18.33° C | 80% | 1011.6 hPa | 0 mm | - | 130 W/m² | - |
| 1788640672 | 18.33° C | 81% | 1011.6 hPa | 0 mm | - | 179 W/m² | - |
| 1788640368 | 17.78° C | 83% | 1011.8 hPa | 0 mm | - | 180 W/m² | - |
| 1788640063 | 17.78° C | 83% | 1011.6 hPa | 0 mm | - | 138 W/m² | - |
| 1788639758 | 17.78° C | 83% | 1011.4 hPa | 0 mm | - | 95 W/m² | - |
* Rain latest hour (hover to see other rain measurements)
** Current wind speed in m/s (hover to see current wind gust speed)